Location: Utrecht
(52.0907°N, 5.1214°E)
Time: 18:42:33
(UTC+01:00)

deb HAPS - Visible Passes

Search period start: 30 November 2022 00:00
Search period end: 10 December 2022 00:00
Orbit: 584 x 817 km, 82.0° (Epoch: 29 November)

Date Brightness Start Highest point End Pass type
(mag) Time Alt. Az. Time Alt. Az. Time Alt. Az.
30 Nov ? 05:38:49 10° NNE 05:41:21 15° ENE 05:43:50 10° E visible
30 Nov ? 07:17:17 10° NNW 07:21:41 77° W 07:25:52 10° S visible
01 Dec ? 06:21:01 10° N 06:25:06 37° ENE 06:29:01 10° SE visible
02 Dec ? 05:25:32 10° NNE 05:28:07 15° ENE 05:30:41 10° E visible
02 Dec ? 07:04:04 10° NNW 07:08:23 73° W 07:12:34 10° S visible
03 Dec ? 06:07:46 10° N 06:11:50 39° ENE 06:15:46 10° SE visible
04 Dec ? 05:12:13 10° NNE 05:14:53 16° ENE 05:17:30 10° E visible
04 Dec ? 06:50:50 10° NNW 06:55:06 70° W 06:59:16 10° S visible
05 Dec ? 05:54:33 10° N 05:58:34 40° ENE 06:02:32 10° SE visible
05 Dec ? 07:34:37 10° NW 07:37:59 23° W 07:41:18 10° SW visible
05 Dec ? 20:24:11 10° SSW 20:24:17 11° SW 20:24:17 11° SW visible
06 Dec ? 04:59:09 11° NNE 05:01:38 16° ENE 05:04:20 10° E visible
06 Dec ? 06:38:04 13° NNW 06:41:49 66° W 06:45:58 10° S visible
06 Dec ? 19:27:32 10° S 19:29:15 22° S 19:29:15 22° S visible
07 Dec ? 05:42:43 20° N 05:45:17 42° ENE 05:49:17 10° SE visible
07 Dec ? 07:21:38 11° NW 07:24:41 22° W 07:27:56 10° SW visible
07 Dec ? 18:32:09 10° SE 18:34:10 20° SE 18:34:10 20° SE visible
07 Dec ? 20:11:03 10° SW 20:13:05 23° SW 20:13:05 23° SW visible
08 Dec ? 04:47:26 16° NE 04:48:23 17° ENE 04:51:10 10° ESE visible
08 Dec ? 06:26:21 27° NNW 06:28:31 63° W 06:32:40 10° S visible
08 Dec ? 19:14:20 10° S 19:17:57 49° SSE 19:17:57 49° SSE visible
08 Dec ? 20:56:05 10° WSW 20:56:52 13° W 20:56:52 13° W visible
09 Dec ? 05:31:07 38° NE 05:32:00 44° ENE 05:36:02 10° SE visible
09 Dec ? 07:10:02 18° WNW 07:11:22 21° W 07:14:33 10° SW visible
09 Dec ? 18:18:54 10° SSE 18:22:44 27° E 18:22:44 27° E visible
09 Dec ? 19:57:55 10° SW 20:01:39 38° W 20:01:39 38° W visible
